,,PA_Meas_PMT16A,,PR_Meas_QMR101_102,,RH_Meas_QMH101,,SR_Meas_QMS101,,TA_Meas_QMH101,,GenWind,,GenWind,
time,status,PA,status,PR,status,RH,status,SR,status,TA,status,DirAvg,status,SpdAvg,
2010-01-18, 00:00:04,VALID,920.87,VALID,0,VALID,97.6788,VALID,0.107441,VALID,19.2514,VALID,61,VALID,0.841016,
2010-01-18, 00:01:04,VALID,920.927,VALID,0,VALID,97.6788,VALID,0,VALID,19.2304,VALID,61,VALID,0.833203,
2010-01-18, 00:02:04,VALID,920.995,VALID,0,VALID,97.6636,VALID,0,VALID,19.2514,VALID,61,VALID,0.432031,
2010-01-18, 00:03:04,VALID,921.004,VALID,0,VALID,97.6636,VALID,0,VALID,19.2709,VALID,61,VALID,0.629297,
2010-01-18, 00:04:04,VALID,921.041,VALID,0,VALID,97.6865,VALID,0,VALID,19.2904,VALID,61,VALID,0.748438,
2010-01-18, 00:05:04,VALID,921.057,VALID,0,VALID,97.6865,VALID,0,VALID,19.3099,VALID,61,VALID,0.369141,
2010-01-18, 00:06:04,VALID,921.099,VALID,0,VALID,97.7169,VALID,0.107441,VALID,19.3684,VALID,61,VALID,0,
2010-01-18, 00:07:04,VALID,921.085,VALID,0,VALID,97.6865,VALID,0,VALID,19.4088,VALID,61,VALID,0,
2010-01-18, 00:08:04,VALID,921.099,VALID,0,VALID,97.6865,VALID,0,VALID,19.3879,VALID,61,VALID,0,
2010-01-18, 00:09:04,VALID,921.063,VALID,0,VALID,97.6788,VALID,0,VALID,19.4268,VALID,61,VALID,0,
2010-01-18, 00:10:04,VALID,921.049,VALID,0,VALID,97.7017,VALID,0,VALID,19.4478,VALID,61,VALID,0.0351563,
2010-01-18, 00:11:04,VALID,921.077,VALID,0,VALID,97.6712,VALID,0,VALID,19.4268,VALID,61,VALID,0.000390625,
2010-01-18, 00:12:04,VALID,921.106,VALID,0,VALID,97.6712,VALID,0,VALID,19.4268,VALID,61,VALID,0.497656,
2010-01-18, 00:13:04,VALID,921.084,VALID,0,VALID,97.6941,VALID,0,VALID,19.4268,VALID,61,VALID,0.578516,
2010-01-18, 00:14:04,VALID,921.068,VALID,0,VALID,97.6712,VALID,0,VALID,19.4074,VALID,61,VALID,0.417969,
2010-01-18, 00:15:04,VALID,921.106,VALID,0,VALID,97.6712,VALID,0,VALID,19.4074,VALID,61,VALID,0.328906,
2010-01-18, 00:16:04,VALID,921.064,VALID,0,VALID,97.7017,VALID,0.107441,VALID,19.4268,VALID,61,VALID,0.05625,
2010-01-18, 00:17:04,VALID,921.102,VALID,0,VALID,97.6788,VALID,0,VALID,19.4658,VALID,61,VALID,0.253906,
2010-01-18, 00:18:04,VALID,921.12,VALID,0,VALID,97.6788,VALID,0,VALID,19.5048,VALID,61,VALID,0.202734,
2010-01-18, 00:19:04,VALID,921.126,VALID,0,VALID,97.6712,VALID,0.107441,VALID,19.4839,VALID,61,VALID,0.384766,
2010-01-18, 00:20:04,VALID,921.118,VALID,0,VALID,97.656,VALID,0,VALID,19.4658,VALID,61,VALID,0.664453,
2010-01-18, 00:21:04,VALID,921.144,VALID,0,VALID,97.6636,VALID,0,VALID,19.4463,VALID,61,VALID,0.802734,
2010-01-18, 00:22:04,VALID,921.112,VALID,0,VALID,97.656,VALID,0.107441,VALID,19.4463,VALID,61,VALID,0.939453,
2010-01-18, 00:23:04,VALID,921.122,VALID,0,VALID,97.656,VALID,0.107441,VALID,19.4268,VALID,195,VALID,0.772656,
2010-01-18, 00:24:04,VALID,921.126,VALID,0,VALID,97.6712,VALID,0.107441,VALID,19.4268,VALID,195,VALID,0.505469,
2010-01-18, 00:25:04,VALID,921.112,VALID,0,VALID,97.6331,VALID,0,VALID,19.4268,VALID,195,VALID,0.0550781,
2010-01-18, 00:26:04,VALID,921.102,VALID,0,VALID,97.6102,VALID,0,VALID,19.3879,VALID,195,VALID,0.437109,
2010-01-18, 00:27:04,VALID,921.093,VALID,0,VALID,97.5721,VALID,0.107441,VALID,19.3294,VALID,195,VALID,0.446484,
2010-01-18, 00:28:04,VALID,921.101,VALID,0,VALID,97.5797,VALID,0.107441,VALID,19.3099,VALID,195,VALID,0.204297,
2010-01-18, 00:29:04,VALID,921.099,VALID,0,VALID,97.6255,VALID,0.107441,VALID,19.2904,VALID,195,VALID,0.21875,
2010-01-18, 00:30:04,VALID,921.133,VALID,0,VALID,97.6331,VALID,0,VALID,19.2904,VALID,195,VALID,0.0347656,
2010-01-18, 00:31:04,VALID,921.127,VALID,0,VALID,97.6865,VALID,0,VALID,19.3099,VALID,195,VALID,0,
2010-01-18, 00:32:04,VALID,921.142,VALID,0,VALID,97.7093,VALID,0,VALID,19.3294,VALID,195,VALID,0,
2010-01-18, 00:33:04,VALID,921.119,VALID,0,VALID,97.7093,VALID,0,VALID,19.3294,VALID,195,VALID,0,
2010-01-18, 00:34:04,VALID,921.08,VALID,0,VALID,97.656,VALID,0,VALID,19.3489,VALID,195,VALID,0,
2010-01-18, 00:35:04,VALID,921.113,VALID,0,VALID,97.6407,VALID,0,VALID,19.3099,VALID,195,VALID,0.532812,
2010-01-18, 00:36:04,VALID,921.055,VALID,0,VALID,97.5721,VALID,0,VALID,19.2709,VALID,195,VALID,0.527734,
2010-01-18, 00:37:04,VALID,921.049,VALID,0,VALID,97.6331,VALID,0,VALID,19.2319,VALID,195,VALID,0.471875,
2010-01-18, 00:38:04,VALID,921.021,VALID,0,VALID,97.6407,VALID,0.107441,VALID,19.2514,VALID,195,VALID,0,
2010-01-18, 00:39:04,VALID,921.02,VALID,0,VALID,97.6483,VALID,0.107441,VALID,19.2709,VALID,195,VALID,0,
2010-01-18, 00:40:04,VALID,921.068,VALID,0,VALID,97.6941,VALID,0.107441,VALID,19.2709,VALID,195,VALID,0,
2010-01-18, 00:41:04,VALID,921.07,VALID,0,VALID,97.6865,VALID,0.107441,VALID,19.2709,VALID,195,VALID,0.324219,
2010-01-18, 00:42:04,VALID,921.056,VALID,0,VALID,97.7093,VALID,0,VALID,19.3113,VALID,195,VALID,0.302734,
2010-01-18, 00:43:04,VALID,921.055,VALID,0,VALID,97.6865,VALID,0,VALID,19.3099,VALID,195,VALID,0.444922,
2010-01-18, 00:44:04,VALID,921.08,VALID,0,VALID,97.7017,VALID,0,VALID,19.3099,VALID,195,VALID,0.421484,
2010-01-18, 00:45:04,VALID,921.073,VALID,0,VALID,97.6712,VALID,0,VALID,19.2904,VALID,195,VALID,0.160938,
2010-01-18, 00:46:04,VALID,921.056,VALID,0,VALID,97.7017,VALID,0,VALID,19.3294,VALID,195,VALID,0,
2010-01-18, 00:47:04,VALID,921.081,VALID,0,VALID,97.7169,VALID,0,VALID,19.3294,VALID,195,VALID,0,
2010-01-18, 00:48:04,VALID,921.057,VALID,0,VALID,97.6865,VALID,0,VALID,19.3294,VALID,195,VALID,0,
2010-01-18, 00:49:04,VALID,921.044,VALID,0,VALID,97.6941,VALID,0,VALID,19.3294,VALID,195,VALID,0.00703125,
2010-01-18, 00:50:04,VALID,921.036,VALID,0,VALID,97.6865,VALID,0,VALID,19.3099,VALID,195,VALID,0.152344,
2010-01-18, 00:51:04,VALID,921.021,VALID,0,VALID,97.6865,VALID,0.107441,VALID,19.3294,VALID,195,VALID,0,
2010-01-18, 00:52:04,VALID,921.003,VALID,0,VALID,97.6407,VALID,0.107441,VALID,19.2694,VALID,195,VALID,0,
2010-01-18, 00:53:04,VALID,920.973,VALID,0,VALID,97.5797,VALID,0.107441,VALID,19.2709,VALID,195,VALID,0.144531,
2010-01-18, 00:54:04,VALID,920.94,VALID,0,VALID,97.4882,VALID,0.107441,VALID,19.1734,VALID,195,VALID,0.248047,
2010-01-18, 00:55:04,VALID,920.92,VALID,0,VALID,97.5873,VALID,0.107441,VALID,19.1539,VALID,195,VALID,0.100391,
2010-01-18, 00:56:04,VALID,920.89,VALID,0,VALID,97.6636,VALID,0.107441,VALID,19.1734,VALID,195,VALID,0,
2010-01-18, 00:57:04,VALID,920.859,VALID,0,VALID,97.6865,VALID,0.107441,VALID,19.2124,VALID,195,VALID,0.239063,
2010-01-18, 00:58:04,VALID,920.814,VALID,0,VALID,97.6178,VALID,0.107441,VALID,19.1344,VALID,195,VALID,0.648047,
2010-01-18, 00:59:04,VALID,920.763,VALID,0,VALID,97.656,VALID,0,VALID,19.1344,VALID,195,VALID,0.827734,
2010-01-18, 01:00:04,VALID,920.772,VALID,0,VALID,97.7017,VALID,0,VALID,19.1734,VALID,195,VALID,0.695703,
2010-01-18, 01:01:04,VALID,920.76,VALID,0,VALID,97.6483,VALID,0,VALID,19.1149,VALID,195,VALID,0.569922,
2010-01-18, 01:02:04,VALID,920.769,VALID,0,VALID,97.6636,VALID,0,VALID,19.0954,VALID,195,VALID,0.897266,
2010-01-18, 01:03:04,VALID,920.74,VALID,0,VALID,97.6865,VALID,0.107441,VALID,19.1149,VALID,170,VALID,0.942969,
2010-01-18, 01:04:04,VALID,920.736,VALID,0,VALID,97.6712,VALID,0.107441,VALID,19.1149,VALID,153,VALID,0.598437,
2010-01-18, 01:05:04,VALID,920.713,VALID,0,VALID,97.6941,VALID,0.107441,VALID,19.1344,VALID,153,VALID,1.29727,
2010-01-18, 01:06:04,VALID,920.717,VALID,0,VALID,97.7246,VALID,0,VALID,19.1539,VALID,153,VALID,0.839453,
2010-01-18, 01:07:04,VALID,920.718,VALID,0,VALID,97.7169,VALID,0.107441,VALID,19.1929,VALID,153,VALID,0.59375,
2010-01-18, 01:08:04,VALID,920.715,VALID,0,VALID,97.7322,VALID,0,VALID,19.1734,VALID,153,VALID,0.28125,
2010-01-18, 01:09:04,VALID,920.692,VALID,0,VALID,97.7169,VALID,0.107441,VALID,19.1929,VALID,153,VALID,0.382031,
2010-01-18, 01:10:04,VALID,920.717,VALID,0,VALID,97.7246,VALID,0,VALID,19.1929,VALID,153,VALID,0.692969,
2010-01-18, 01:11:04,VALID,920.68,VALID,0,VALID,97.7093,VALID,0.107441,VALID,19.1929,VALID,153,VALID,0.802344,
2010-01-18, 01:12:04,VALID,920.656,VALID,0,VALID,97.7169,VALID,0,VALID,19.1929,VALID,153,VALID,0.706641,
2010-01-18, 01:13:04,VALID,920.652,VALID,0,VALID,97.6941,VALID,0,VALID,19.1929,VALID,153,VALID,0.564453,
2010-01-18, 01:14:04,VALID,920.65,VALID,0,VALID,97.7246,VALID,0,VALID,19.2124,VALID,153,VALID,0.641797,
2010-01-18, 01:15:04,VALID,920.661,VALID,0,VALID,97.7246,VALID,0,VALID,19.2319,VALID,153,VALID,0.459766,
2010-01-18, 01:16:04,VALID,920.659,VALID,0,VALID,97.7169,VALID,0.107441,VALID,19.2319,VALID,153,VALID,0.497266,
2010-01-18, 01:17:04,VALID,920.644,VALID,0,VALID,97.7093,VALID,0,VALID,19.2319,VALID,153,VALID,0.551562,
2010-01-18, 01:18:04,VALID,920.579,VALID,0,VALID,97.7017,VALID,0,VALID,19.2319,VALID,153,VALID,0.598047,
2010-01-18, 01:19:04,VALID,920.581,VALID,0,VALID,97.6331,VALID,0.107441,VALID,19.172,VALID,153,VALID,0.337109,
2010-01-18, 01:20:04,VALID,920.564,VALID,0,VALID,97.595,VALID,0.107441,VALID,19.1539,VALID,153,VALID,0.500391,
2010-01-18, 01:21:04,VALID,920.555,VALID,0,VALID,97.5873,VALID,0.107441,VALID,19.0759,VALID,153,VALID,0.514063,
2010-01-18, 01:22:04,VALID,920.532,VALID,0,VALID,97.6102,VALID,0,VALID,19.0759,VALID,153,VALID,0.50625,
2010-01-18, 01:23:04,VALID,920.503,VALID,0,VALID,97.656,VALID,0,VALID,19.0369,VALID,153,VALID,0.682813,
2010-01-18, 01:24:04,VALID,920.478,VALID,0,VALID,97.6865,VALID,0,VALID,19.0564,VALID,153,VALID,0.639453,
2010-01-18, 01:25:04,VALID,920.47,VALID,0,VALID,97.6865,VALID,0,VALID,19.0564,VALID,153,VALID,0.619531,
2010-01-18, 01:26:04,VALID,920.432,VALID,0,VALID,97.7169,VALID,0,VALID,19.0369,VALID,153,VALID,0.648438,
2010-01-18, 01:27:04,VALID,920.45,VALID,0,VALID,97.7169,VALID,0.107441,VALID,19.0175,VALID,153,VALID,0.809375,
2010-01-18, 01:28:04,VALID,920.445,VALID,0,VALID,97.7398,VALID,0,VALID,19.0579,VALID,153,VALID,0.906641,
2010-01-18, 01:29:04,VALID,920.442,VALID,0,VALID,97.7474,VALID,0,VALID,19.0759,VALID,153,VALID,0.883203,
2010-01-18, 01:30:04,VALID,920.473,VALID,0,VALID,97.7551,VALID,0,VALID,19.0759,VALID,153,VALID,0.650391,
2010-01-18, 01:31:04,VALID,920.443,VALID,0,VALID,97.7398,VALID,0.107441,VALID,19.1149,VALID,153,VALID,0.89375,
2010-01-18, 01:32:04,VALID,920.426,VALID,0,VALID,97.7551,VALID,0,VALID,19.0954,VALID,153,VALID,1.12969,
2010-01-18, 01:33:04,VALID,920.451,VALID,0,VALID,97.7474,VALID,0,VALID,19.1359,VALID,153,VALID,0.8875,
2010-01-18, 01:34:04,VALID,920.425,VALID,0,VALID,97.7474,VALID,0,VALID,19.1554,VALID,153,VALID,0.825391,
2010-01-18, 01:35:04,VALID,920.4,VALID,0,VALID,97.7474,VALID,0,VALID,19.1539,VALID,153,VALID,1.03008,
2010-01-18, 01:36:04,VALID,920.397,VALID,0,VALID,97.7398,VALID,0,VALID,19.1734,VALID,153,VALID,0.636328,
2010-01-18, 01:37:04,VALID,920.391,VALID,0,VALID,97.7474,VALID,0,VALID,19.1749,VALID,153,VALID,0.888281,
2010-01-18, 01:38:04,VALID,920.394,VALID,0,VALID,97.7398,VALID,0.107441,VALID,19.1734,VALID,153,VALID,1.07695,
2010-01-18, 01:39:04,VALID,920.397,VALID,0,VALID,97.7322,VALID,0.107441,VALID,19.1734,VALID,153,VALID,0.810547,
2010-01-18, 01:40:04,VALID,920.399,VALID,0,VALID,97.7551,VALID,0,VALID,19.1734,VALID,153,VALID,0.751172,
2010-01-18, 01:41:04,VALID,920.38,VALID,0,VALID,97.7322,VALID,0.107441,VALID,19.1734,VALID,153,VALID,1.12969,
2010-01-18, 01:42:04,VALID,920.337,VALID,0,VALID,97.7474,VALID,0,VALID,19.1929,VALID,153,VALID,0.977734,
2010-01-18, 01:43:04,VALID,920.318,VALID,0,VALID,97.7398,VALID,0,VALID,19.1734,VALID,152,VALID,1.03008,
2010-01-18, 01:44:04,VALID,920.298,VALID,0,VALID,97.7169,VALID,0.107441,VALID,19.1344,VALID,116,VALID,0.916797,
2010-01-18, 01:45:04,VALID,920.293,VALID,0,VALID,97.7169,VALID,0,VALID,19.1554,VALID,116,VALID,0.497266,
2010-01-18, 01:46:04,VALID,920.312,VALID,0,VALID,97.7398,VALID,0.107441,VALID,19.1344,VALID,116,VALID,0.894141,
2010-01-18, 01:47:04,VALID,920.333,VALID,0,VALID,97.7474,VALID,0,VALID,19.1344,VALID,116,VALID,0.50625,
2010-01-18, 01:48:04,VALID,920.34,VALID,0,VALID,97.7398,VALID,0.107441,VALID,19.1135,VALID,116,VALID,0.641406,
2010-01-18, 01:49:04,VALID,920.35,VALID,0,VALID,97.7551,VALID,0,VALID,19.1539,VALID,116,VALID,0.398438,
2010-01-18, 01:50:04,VALID,920.333,VALID,0,VALID,97.7551,VALID,0.107441,VALID,19.1539,VALID,116,VALID,0.831641,
2010-01-18, 01:51:04,VALID,920.325,VALID,0,VALID,97.7474,VALID,0.107441,VALID,19.1525,VALID,116,VALID,1.14297,
2010-01-18, 01:52:04,VALID,920.326,VALID,0,VALID,97.7474,VALID,0,VALID,19.1944,VALID,116,VALID,0.832422,
2010-01-18, 01:53:04,VALID,920.319,VALID,0,VALID,97.7627,VALID,0,VALID,19.1539,VALID,116,VALID,0.942187,
2010-01-18, 01:54:04,VALID,920.333,VALID,0,VALID,97.7551,VALID,0,VALID,19.1539,VALID,116,VALID,0.455078,
2010-01-18, 01:55:04,VALID,920.322,VALID,0,VALID,97.7474,VALID,0,VALID,19.1734,VALID,116,VALID,0.725391,
2010-01-18, 01:56:04,VALID,920.349,VALID,0,VALID,97.7627,VALID,0,VALID,19.1734,VALID,116,VALID,0.324609,
2010-01-18, 01:57:04,VALID,920.311,VALID,0,VALID,97.7703,VALID,0,VALID,19.1734,VALID,116,VALID,0.729688,
2010-01-18, 01:58:04,VALID,920.363,VALID,0,VALID,97.7322,VALID,0,VALID,19.1539,VALID,116,VALID,0.666406,
2010-01-18, 01:59:04,VALID,920.35,VALID,0,VALID,97.7474,VALID,0,VALID,19.1539,VALID,116,VALID,0.827734,
2010-01-18, 02:00:04,VALID,920.364,VALID,0,VALID,97.7474,VALID,0,VALID,19.1539,VALID,116,VALID,0.669531,
2010-01-18, 02:01:04,VALID,920.369,VALID,0,VALID,97.7703,VALID,0,VALID,19.1539,VALID,116,VALID,0.656641,
2010-01-18, 02:02:04,VALID,920.356,VALID,0,VALID,97.7398,VALID,0,VALID,19.1359,VALID,116,VALID,0.489844,
2010-01-18, 02:03:04,VALID,920.366,VALID,0,VALID,97.7703,VALID,0,VALID,19.1149,VALID,116,VALID,0.668359,
2010-01-18, 02:04:04,VALID,920.351,VALID,0,VALID,97.7474,VALID,0,VALID,19.1164,VALID,116,VALID,0.623828,
2010-01-18, 02:05:04,VALID,920.335,VALID,0,VALID,97.7627,VALID,0,VALID,19.0774,VALID,116,VALID,0.877734,
2010-01-18, 02:06:04,VALID,920.286,VALID,0,VALID,97.7627,VALID,0,VALID,19.0564,VALID,116,VALID,0.902734,
2010-01-18, 02:07:04,VALID,920.276,VALID,0,VALID,97.7703,VALID,0,VALID,19.0774,VALID,116,VALID,0.94375,
2010-01-18, 02:08:04,VALID,920.224,VALID,0,VALID,97.7779,VALID,0,VALID,19.0369,VALID,116,VALID,1.07539,
2010-01-18, 02:09:04,VALID,920.203,VALID,0,VALID,97.7703,VALID,0,VALID,19.0369,VALID,116,VALID,1.21055,
2010-01-18, 02:10:04,VALID,920.193,VALID,0,VALID,97.7779,VALID,0,VALID,19.0384,VALID,116,VALID,1.10938,
2010-01-18, 02:11:04,VALID,920.19,VALID,0,VALID,97.7474,VALID,0,VALID,19.0175,VALID,116,VALID,0.664063,
2010-01-18, 02:12:04,VALID,920.166,VALID,0,VALID,97.7627,VALID,0,VALID,19.0175,VALID,116,VALID,0.504687,
2010-01-18, 02:13:04,VALID,920.128,VALID,0,VALID,97.7779,VALID,0,VALID,19.0175,VALID,116,VALID,0.407813,
2010-01-18, 02:14:04,VALID,920.134,VALID,0,VALID,97.7703,VALID,0,VALID,18.998,VALID,116,VALID,0.646875,
2010-01-18, 02:15:04,VALID,920.127,VALID,0,VALID,97.7856,VALID,0,VALID,19.0369,VALID,116,VALID,0.717578,
2010-01-18, 02:16:04,VALID,920.157,VALID,0,VALID,97.7779,VALID,0.107441,VALID,19.0189,VALID,116,VALID,0.521875,
2010-01-18, 02:17:04,VALID,920.158,VALID,0,VALID,97.7932,VALID,0,VALID,18.998,VALID,116,VALID,0.357812,
2010-01-18, 02:18:04,VALID,920.168,VALID,0,VALID,97.7779,VALID,0,VALID,18.9994,VALID,116,VALID,0.794922,
2010-01-18, 02:19:04,VALID,920.184,VALID,0,VALID,97.7779,VALID,0,VALID,18.9994,VALID,116,VALID,0.900391,
2010-01-18, 02:20:04,VALID,920.191,VALID,0,VALID,97.7932,VALID,0,VALID,18.9994,VALID,116,VALID,0.779297,
2010-01-18, 02:21:04,VALID,920.16,VALID,0,VALID,97.7779,VALID,0,VALID,18.9785,VALID,116,VALID,0.378906,
2010-01-18, 02:22:04,VALID,920.196,VALID,0,VALID,97.7856,VALID,0,VALID,18.9785,VALID,116,VALID,0.421094,
2010-01-18, 02:23:04,VALID,920.2,VALID,0,VALID,97.8008,VALID,0,VALID,18.998,VALID,116,VALID,0.309375,
2010-01-18, 02:24:04,VALID,920.197,VALID,0,VALID,97.7856,VALID,0,VALID,19.0384,VALID,116,VALID,0.73125,
2010-01-18, 02:25:04,VALID,920.156,VALID,0,VALID,97.8008,VALID,0,VALID,19.0369,VALID,116,VALID,0.4,
2010-01-18, 02:26:04,VALID,920.144,VALID,0,VALID,97.7856,VALID,0,VALID,19.0774,VALID,116,VALID,0.485156,
2010-01-18, 02:27:04,VALID,920.146,VALID,0,VALID,97.7779,VALID,0,VALID,19.0369,VALID,116,VALID,0.622266,
2010-01-18, 02:28:04,VALID,920.134,VALID,0,VALID,97.7932,VALID,0,VALID,19.0369,VALID,115,VALID,0.717188,
2010-01-18, 02:29:04,VALID,920.159,VALID,0,VALID,97.7932,VALID,0,VALID,19.0189,VALID,116,VALID,0.622266,
2010-01-18, 02:30:04,VALID,920.178,VALID,0,VALID,97.7779,VALID,0,VALID,19.0189,VALID,115,VALID,0.647656,
2010-01-18, 02:31:04,VALID,920.166,VALID,0,VALID,97.7856,VALID,0,VALID,18.998,VALID,116,VALID,0.724609,
2010-01-18, 02:32:04,VALID,920.202,VALID,0,VALID,97.8008,VALID,0,VALID,19.0189,VALID,116,VALID,0.422266,
2010-01-18, 02:33:04,VALID,920.217,VALID,0,VALID,97.7779,VALID,0,VALID,18.9994,VALID,116,VALID,0.417969,
2010-01-18, 02:34:04,VALID,920.216,VALID,0,VALID,97.7779,VALID,0,VALID,18.998,VALID,116,VALID,0.573047,
2010-01-18, 02:35:04,VALID,920.248,VALID,0,VALID,97.816,VALID,0,VALID,19.0564,VALID,116,VALID,0.75625,
2010-01-18, 02:36:04,VALID,920.237,VALID,0,VALID,97.7856,VALID,0,VALID,19.0175,VALID,116,VALID,0.5,
2010-01-18, 02:37:04,VALID,920.233,VALID,0,VALID,97.8008,VALID,0,VALID,19.0384,VALID,116,VALID,0.638281,
2010-01-18, 02:38:04,VALID,920.24,VALID,0,VALID,97.7703,VALID,0,VALID,19.0175,VALID,116,VALID,0.671875,
2010-01-18, 02:39:04,VALID,920.275,VALID,0,VALID,97.8084,VALID,0.107441,VALID,19.0384,VALID,116,VALID,0.595703,
2010-01-18, 02:40:04,VALID,920.263,VALID,0,VALID,97.8008,VALID,0,VALID,19.0369,VALID,116,VALID,0.68125,
2010-01-18, 02:41:04,VALID,920.262,VALID,0,VALID,97.816,VALID,0,VALID,19.0759,VALID,116,VALID,0.939062,
2010-01-18, 02:42:04,VALID,920.229,VALID,0,VALID,97.7932,VALID,0.107441,VALID,19.0774,VALID,116,VALID,0.765625,
2010-01-18, 02:43:04,VALID,920.209,VALID,0,VALID,97.7932,VALID,0,VALID,19.0369,VALID,116,VALID,0.885156,
2010-01-18, 02:44:04,VALID,920.232,VALID,0,VALID,97.8008,VALID,0,VALID,19.0384,VALID,116,VALID,0.710938,
2010-01-18, 02:45:04,VALID,920.206,VALID,0,VALID,97.7779,VALID,0,VALID,19.0189,VALID,116,VALID,0.705859,
2010-01-18, 02:46:04,VALID,920.233,VALID,0,VALID,97.7856,VALID,0,VALID,18.9994,VALID,116,VALID,0.733203,
2010-01-18, 02:47:04,VALID,920.212,VALID,0,VALID,97.7703,VALID,0,VALID,18.9785,VALID,116,VALID,0.639844,
2010-01-18, 02:48:04,VALID,920.219,VALID,0,VALID,97.7932,VALID,0,VALID,18.998,VALID,116,VALID,0.7375,
2010-01-18, 02:49:04,VALID,920.232,VALID,0,VALID,97.7932,VALID,0,VALID,19.0175,VALID,116,VALID,0.775391,
2010-01-18, 02:50:04,VALID,920.19,VALID,0,VALID,97.7856,VALID,0,VALID,19.0175,VALID,116,VALID,0.948828,
2010-01-18, 02:51:04,VALID,920.173,VALID,0,VALID,97.8008,VALID,0,VALID,19.0384,VALID,116,VALID,1,
2010-01-18, 02:52:04,VALID,920.164,VALID,0,VALID,97.7932,VALID,0.107441,VALID,19.0369,VALID,127,VALID,0.823438,
2010-01-18, 02:53:04,VALID,920.181,VALID,0,VALID,97.7932,VALID,0.107441,VALID,19.0774,VALID,145,VALID,1.02461,
2010-01-18, 02:54:04,VALID,920.195,VALID,0,VALID,97.7627,VALID,0.107441,VALID,19.0579,VALID,145,VALID,1.19219,
2010-01-18, 02:55:04,VALID,920.218,VALID,0,VALID,97.7779,VALID,0,VALID,19.0774,VALID,145,VALID,1.16875,
2010-01-18, 02:56:04,VALID,920.193,VALID,0,VALID,97.8008,VALID,0,VALID,19.0759,VALID,145,VALID,1.23711,
2010-01-18, 02:57:04,VALID,920.205,VALID,0,VALID,97.7703,VALID,0.107441,VALID,19.0954,VALID,146,VALID,0.644922,
2010-01-18, 02:58:04,VALID,920.194,VALID,0,VALID,97.7779,VALID,0.107441,VALID,19.1164,VALID,146,VALID,0.819141,
2010-01-18, 02:59:04,VALID,920.216,VALID,0,VALID,97.7703,VALID,0,VALID,19.0954,VALID,146,VALID,1.07383,
2010-01-18, 03:00:04,VALID,920.211,VALID,0,VALID,97.7627,VALID,0,VALID,19.0954,VALID,146,VALID,0.844141,
2010-01-18, 03:01:04,VALID,920.242,VALID,0,VALID,97.7627,VALID,0,VALID,19.0954,VALID,146,VALID,1.15664,
2010-01-18, 03:02:04,VALID,920.256,VALID,0,VALID,97.7551,VALID,0.107441,VALID,19.0759,VALID,146,VALID,0.683203,
2010-01-18, 03:03:04,VALID,920.237,VALID,0,VALID,97.7551,VALID,0,VALID,19.0564,VALID,146,VALID,0.588672,
2010-01-18, 03:04:04,VALID,920.227,VALID,0,VALID,97.7627,VALID,0,VALID,19.0369,VALID,146,VALID,0.960156,
2010-01-18, 03:05:04,VALID,920.227,VALID,0,VALID,97.7856,VALID,0,VALID,19.0579,VALID,146,VALID,0.843359,
2010-01-18, 03:06:04,VALID,920.22,VALID,0,VALID,97.7627,VALID,0,VALID,19.0175,VALID,146,VALID,0.548437,
2010-01-18, 03:07:04,VALID,920.166,VALID,0,VALID,97.7932,VALID,0,VALID,19.0384,VALID,146,VALID,1.2332,
2010-01-18, 03:08:04,VALID,920.151,VALID,0,VALID,97.7779,VALID,0,VALID,19.0175,VALID,146,VALID,1.05273,
2010-01-18, 03:09:04,VALID,920.152,VALID,0,VALID,97.7779,VALID,0,VALID,19.0175,VALID,146,VALID,0.858203,
2010-01-18, 03:10:04,VALID,920.143,VALID,0,VALID,97.7932,VALID,0,VALID,19.0175,VALID,146,VALID,1.07305,
2010-01-18, 03:11:04,VALID,920.15,VALID,0,VALID,97.7703,VALID,0,VALID,19.0189,VALID,146,VALID,0.791406,
2010-01-18, 03:12:04,VALID,920.13,VALID,0,VALID,97.7932,VALID,0,VALID,19.0189,VALID,146,VALID,0.813672,
2010-01-18, 03:13:04,VALID,920.151,VALID,0,VALID,97.7779,VALID,0.107441,VALID,18.9799,VALID,146,VALID,0.883203,
2010-01-18, 03:14:04,VALID,920.127,VALID,0,VALID,97.7551,VALID,0,VALID,18.959,VALID,146,VALID,0.658203,
2010-01-18, 03:15:04,VALID,920.107,VALID,0,VALID,97.7856,VALID,0,VALID,18.9799,VALID,146,VALID,1.03164,
2010-01-18, 03:16:04,VALID,920.123,VALID,0,VALID,97.7856,VALID,0,VALID,18.9799,VALID,146,VALID,1.02734,
2010-01-18, 03:17:04,VALID,920.136,VALID,0,VALID,97.7856,VALID,0,VALID,18.9604,VALID,146,VALID,0.63125,
2010-01-18, 03:18:04,VALID,920.159,VALID,0,VALID,97.7779,VALID,0,VALID,18.9395,VALID,146,VALID,0.735937,
2010-01-18, 03:19:04,VALID,920.169,VALID,0,VALID,97.7932,VALID,0,VALID,18.9799,VALID,146,VALID,0.538281,
2010-01-18, 03:20:04,VALID,920.158,VALID,0,VALID,97.7856,VALID,0,VALID,18.9604,VALID,146,VALID,0.422266,
2010-01-18, 03:21:04,VALID,920.169,VALID,0,VALID,97.8008,VALID,0,VALID,18.9814,VALID,146,VALID,0.572266,
2010-01-18, 03:22:04,VALID,920.19,VALID,0,VALID,97.7551,VALID,0,VALID,18.9604,VALID,146,VALID,0.561719,
2010-01-18, 03:23:04,VALID,920.23,VALID,0,VALID,97.7856,VALID,0,VALID,18.9799,VALID,146,VALID,0.280078,
2010-01-18, 03:24:04,VALID,920.203,VALID,0,VALID,97.7932,VALID,0.107441,VALID,18.9395,VALID,146,VALID,0,
2010-01-18, 03:25:04,VALID,920.225,VALID,0,VALID,97.7856,VALID,0.107441,VALID,18.998,VALID,146,VALID,0,
2010-01-18, 03:26:04,VALID,920.229,VALID,0,VALID,97.7932,VALID,0.107441,VALID,19.0189,VALID,146,VALID,0,
2010-01-18, 03:27:04,VALID,920.233,VALID,0,VALID,97.7779,VALID,0,VALID,18.998,VALID,146,VALID,0,
2010-01-18, 03:28:04,VALID,920.21,VALID,0,VALID,97.7627,VALID,0.107441,VALID,18.998,VALID,146,VALID,0.575781,
2010-01-18, 03:29:04,VALID,920.206,VALID,0,VALID,97.7779,VALID,0,VALID,18.9994,VALID,146,VALID,0.676172,
2010-01-18, 03:30:04,VALID,920.209,VALID,0,VALID,97.7703,VALID,0.107441,VALID,18.9785,VALID,146,VALID,0.931641,
2010-01-18, 03:31:04,VALID,920.204,VALID,0,VALID,97.7703,VALID,0,VALID,19.0189,VALID,146,VALID,0.690234,
2010-01-18, 03:32:04,VALID,920.21,VALID,0,VALID,97.7398,VALID,0,VALID,18.9994,VALID,146,VALID,0.80625,
2010-01-18, 03:33:04,VALID,920.169,VALID,0,VALID,97.7398,VALID,0,VALID,18.959,VALID,146,VALID,0.646484,
2010-01-18, 03:34:04,VALID,920.196,VALID,0,VALID,97.7474,VALID,0.107441,VALID,18.9799,VALID,146,VALID,0.405469,
2010-01-18, 03:35:04,VALID,920.18,VALID,0,VALID,97.7627,VALID,0,VALID,18.959,VALID,146,VALID,0.169141,
2010-01-18, 03:36:04,VALID,920.169,VALID,0,VALID,97.7398,VALID,0,VALID,18.9785,VALID,146,VALID,0.205859,
2010-01-18, 03:37:04,VALID,920.151,VALID,0,VALID,97.7169,VALID,0,VALID,18.9799,VALID,146,VALID,0.295703,
2010-01-18, 03:38:04,VALID,920.137,VALID,0,VALID,97.7169,VALID,0,VALID,18.9409,VALID,146,VALID,0.527734,
2010-01-18, 03:39:04,VALID,920.085,VALID,0,VALID,97.7246,VALID,0.107441,VALID,18.9395,VALID,146,VALID,0.684766,
2010-01-18, 03:40:04,VALID,920.027,VALID,0,VALID,97.6102,VALID,0,VALID,18.881,VALID,146,VALID,0.718359,
2010-01-18, 03:41:04,VALID,919.977,VALID,0,VALID,97.6865,VALID,0,VALID,18.8824,VALID,146,VALID,0.837891,
2010-01-18, 03:42:04,VALID,919.935,VALID,0,VALID,97.7551,VALID,0,VALID,18.881,VALID,146,VALID,0.741797,